TimeEDT,TemperatureF,Dew PointF,Humidity,Sea Level PressureIn,VisibilityMPH,Wind Direction,Wind SpeedMPH,Gust SpeedMPH,PrecipitationIn,Events,Conditions,WindDirDegrees,DateUTC
12:15 AM,39.2,33.8,81,29.98,10.0,Calm,Calm,-,N/A,,Clear,0,2013-03-24 04:15:00
12:35 AM,39.2,33.8,81,29.97,10.0,Calm,Calm,-,N/A,,Clear,0,2013-03-24 04:35:00
12:55 AM,37.4,33.8,87,29.96,10.0,Calm,Calm,-,N/A,,Clear,0,2013-03-24 04:55:00
1:15 AM,37.4,33.8,87,29.95,10.0,ESE,3.5,-,N/A,,Clear,120,2013-03-24 05:15:00
1:35 AM,37.4,33.8,87,29.96,10.0,ESE,3.5,-,N/A,,Clear,110,2013-03-24 05:35:00
1:55 AM,35.6,33.8,93,29.96,10.0,ENE,4.6,-,N/A,,Clear,60,2013-03-24 05:55:00
2:15 AM,35.6,33.8,93,29.95,10.0,Calm,Calm,-,N/A,,Clear,0,2013-03-24 06:15:00
2:35 AM,35.6,33.8,93,29.97,10.0,ENE,4.6,-,N/A,,Clear,70,2013-03-24 06:35:00
2:55 AM,35.6,33.8,93,29.96,10.0,Calm,Calm,-,N/A,,Clear,0,2013-03-24 06:55:00
3:35 AM,35.6,33.8,93,29.98,5.0,Calm,Calm,-,N/A,,Clear,0,2013-03-24 07:35:00
3:55 AM,33.8,32.0,93,29.97,4.0,Calm,Calm,-,N/A,,Clear,0,2013-03-24 07:55:00
4:15 AM,33.8,32.0,93,29.98,4.0,Calm,Calm,-,N/A,,Clear,0,2013-03-24 08:15:00
4:35 AM,35.6,33.8,93,29.98,4.0,NE,4.6,-,N/A,,Scattered Clouds,40,2013-03-24 08:35:00
4:55 AM,35.6,33.8,93,29.96,3.0,NE,4.6,-,N/A,,Scattered Clouds,50,2013-03-24 08:55:00
5:15 AM,37.4,35.6,93,29.96,4.0,ENE,4.6,-,N/A,,Clear,60,2013-03-24 09:15:00
5:35 AM,37.4,35.6,93,29.96,5.0,ENE,3.5,-,N/A,,Clear,60,2013-03-24 09:35:00
5:55 AM,37.4,35.6,93,29.96,10.0,ENE,4.6,-,N/A,,Clear,60,2013-03-24 09:55:00
6:15 AM,37.4,35.6,93,29.95,10.0,ENE,4.6,-,N/A,,Clear,60,2013-03-24 10:15:00
6:35 AM,37.4,35.6,93,29.95,10.0,ENE,4.6,-,N/A,,Clear,60,2013-03-24 10:35:00
6:55 AM,37.4,33.8,87,29.95,10.0,ENE,3.5,-,N/A,,Clear,60,2013-03-24 10:55:00
7:15 AM,37.4,33.8,87,29.95,10.0,ENE,3.5,-,N/A,,Clear,60,2013-03-24 11:15:00
7:35 AM,37.4,33.8,87,29.95,10.0,ENE,4.6,-,N/A,,Clear,60,2013-03-24 11:35:00
7:55 AM,39.2,33.8,81,29.95,10.0,ENE,6.9,-,N/A,,Clear,60,2013-03-24 11:55:00
8:15 AM,39.2,33.8,81,29.95,10.0,ENE,6.9,-,N/A,,Clear,60,2013-03-24 12:15:00
8:35 AM,41.0,33.8,76,29.95,10.0,ENE,4.6,-,N/A,,Clear,60,2013-03-24 12:35:00
8:55 AM,41.0,32.0,70,29.93,10.0,ENE,5.8,-,N/A,,Clear,60,2013-03-24 12:55:00
9:15 AM,42.8,32.0,66,29.92,10.0,ENE,8.1,18.4,N/A,,Clear,60,2013-03-24 13:15:00
9:35 AM,42.8,30.2,61,29.93,10.0,ENE,3.5,-,N/A,,Clear,70,2013-03-24 13:35:00
9:55 AM,42.8,30.2,61,29.93,10.0,East,6.9,-,N/A,,Clear,80,2013-03-24 13:55:00
10:15 AM,42.8,30.2,61,29.91,10.0,ENE,5.8,-,N/A,,Clear,70,2013-03-24 14:15:00
10:35 AM,42.8,30.2,61,29.88,10.0,ENE,6.9,18.4,N/A,,Clear,70,2013-03-24 14:35:00
10:55 AM,42.8,30.2,61,29.89,10.0,ENE,5.8,-,N/A,,Clear,60,2013-03-24 14:55:00
11:15 AM,42.8,30.2,61,29.91,10.0,ENE,6.9,-,N/A,,Clear,70,2013-03-24 15:15:00
11:35 AM,42.8,28.4,57,29.92,10.0,Calm,Calm,-,N/A,,Clear,0,2013-03-24 15:35:00
11:55 AM,44.6,30.2,57,29.91,10.0,East,5.8,-,N/A,,Clear,100,2013-03-24 15:55:00
12:15 PM,42.8,26.6,53,29.90,10.0,East,6.9,-,N/A,,Clear,90,2013-03-24 16:15:00
12:35 PM,44.6,28.4,53,29.82,10.0,East,6.9,17.3,N/A,,Clear,90,2013-03-24 16:35:00
12:55 PM,44.6,28.4,53,29.81,10.0,East,9.2,-,N/A,,Clear,90,2013-03-24 16:55:00
1:15 PM,42.8,30.2,61,29.80,10.0,ENE,4.6,-,N/A,,Scattered Clouds,60,2013-03-24 17:15:00
1:35 PM,42.8,33.8,70,29.79,10.0,ENE,6.9,-,N/A,,Scattered Clouds,60,2013-03-24 17:35:00
1:55 PM,44.6,33.8,66,29.77,7.0,ENE,9.2,18.4,N/A,,Scattered Clouds,70,2013-03-24 17:55:00
2:15 PM,42.8,35.6,76,29.76,7.0,ENE,10.4,16.1,N/A,,Scattered Clouds,70,2013-03-24 18:15:00
2:35 PM,42.8,37.4,81,29.75,10.0,East,6.9,-,0.01,,Mostly Cloudy,80,2013-03-24 18:35:00
2:55 PM,42.8,37.4,81,29.74,10.0,ENE,9.2,-,0.01,,Mostly Cloudy,70,2013-03-24 18:55:00
3:15 PM,42.8,35.6,76,29.71,7.0,East,9.2,-,N/A,,Scattered Clouds,80,2013-03-24 19:15:00
3:35 PM,42.8,35.6,76,29.69,10.0,East,6.9,-,0.01,,Mostly Cloudy,80,2013-03-24 19:35:00
3:55 PM,41.0,35.6,81,29.68,5.0,ENE,5.8,-,0.02,,Mostly Cloudy,70,2013-03-24 19:55:00
4:15 PM,41.0,37.4,87,29.68,5.0,East,8.1,-,0.01,,Mostly Cloudy,80,2013-03-24 20:15:00
4:35 PM,39.2,35.6,87,29.69,4.0,ENE,3.5,-,0.03,,Overcast,60,2013-03-24 20:35:00
4:55 PM,39.2,37.4,93,29.69,2.5,NE,4.6,-,0.04,,Overcast,50,2013-03-24 20:55:00
5:15 PM,37.4,35.6,93,29.69,3.0,NE,3.5,-,0.02,,Mostly Cloudy,50,2013-03-24 21:15:00
5:35 PM,37.4,35.6,93,29.71,2.5,NNE,3.5,-,0.04,,Mostly Cloudy,20,2013-03-24 21:35:00
5:55 PM,35.6,33.8,93,29.75,1.0,North,4.6,-,0.07,,Overcast,350,2013-03-24 21:55:00
6:15 PM,33.8,32.0,93,29.79,0.2,NNW,4.6,-,0.03,,Overcast,340,2013-03-24 22:15:00
6:35 PM,33.8,32.0,93,29.76,0.2,NNE,4.6,-,0.03,,Overcast,30,2013-03-24 22:35:00
6:55 PM,33.8,32.0,93,29.75,0.2,NE,3.5,-,0.03,,Overcast,50,2013-03-24 22:55:00
7:15 PM,33.8,32.0,93,29.72,0.2,Calm,Calm,-,0.01,,Overcast,0,2013-03-24 23:15:00
7:35 PM,33.8,32.0,93,29.70,1.0,ENE,3.5,-,0.01,,Overcast,60,2013-03-24 23:35:00
8:15 PM,33.8,32.0,93,29.70,3.0,ENE,3.5,-,0.05,,Overcast,70,2013-03-25 00:15:00
8:35 PM,33.8,32.0,93,29.67,2.5,ENE,6.9,-,0.16,,Overcast,70,2013-03-25 00:35:00
8:55 PM,33.8,32.0,93,29.64,7.0,ENE,10.4,17.3,0.20,,Overcast,70,2013-03-25 00:55:00
9:15 PM,33.8,32.0,93,29.63,10.0,East,10.4,-,0.04,,Overcast,80,2013-03-25 01:15:00
9:35 PM,33.8,33.8,100,29.64,10.0,ENE,4.6,-,0.05,,Overcast,60,2013-03-25 01:35:00
9:55 PM,33.8,33.8,100,29.67,10.0,ENE,5.8,-,0.06,,Overcast,60,2013-03-25 01:55:00
10:15 PM,33.8,33.8,100,29.68,10.0,NE,4.6,-,0.03,,Overcast,50,2013-03-25 02:15:00
10:35 PM,33.8,33.8,100,29.68,5.0,Calm,Calm,-,0.05,,Overcast,0,2013-03-25 02:35:00
10:55 PM,33.8,33.8,100,29.66,5.0,NE,5.8,-,0.05,,Overcast,50,2013-03-25 02:55:00
11:15 PM,33.8,33.8,100,29.64,7.0,ENE,4.6,-,0.01,,Overcast,60,2013-03-25 03:15:00
11:35 PM,33.8,33.8,100,29.63,10.0,ENE,4.6,-,0.02,,Overcast,60,2013-03-25 03:35:00
11:55 PM,33.8,33.8,100,29.62,10.0,ENE,4.6,-,0.02,,Overcast,70,2013-03-25 03:55:00